Date String (YYYY-MM-DD hh:mm:ss) UTC,Instrument flags,Ambient pressure (hPa),Sample flow (lpm),Bypass flow (lpm),Sample temperature (°C),Ambient temperature (°C),ASC tube jacket temperature (°C),LED temperature (°C),Box temperature (°C),Sample RH (%),Span deviation,Mass concentration (μg/m³),Mass concentration (μg/m³),Mass concentration (μg/m³)
DateTimeUTC,F1_M11,P_M11,Q1_M11,Q2_M11,T1_M11,T2_M11,T3_M11,T4_M11,T5_M11,U1_M11,ZSPAN_M11,X0_M11,X2_M11,X1_M11
2022-12-21 01:00:00,,0826.5,4.97,0.00,22.9,21.6,00.0,31.8,24.8,08.5,0004.7,0051.11,0018.76,0014.84
2022-12-21 01:01:00,,0826.5,5.02,0.00,22.9,21.6,00.0,31.8,24.8,08.5,0004.6,0051.73,0018.60,0014.70
2022-12-21 01:02:00,,0826.5,4.96,0.00,22.9,21.6,00.0,31.8,24.8,08.5,0004.5,0051.81,0018.60,0014.71
2022-12-21 01:03:00,,0826.4,5.03,0.00,22.9,21.6,00.0,31.8,24.8,08.5,0003.6,0050.35,0018.60,0014.77
2022-12-21 01:04:00,,0826.4,5.01,0.00,22.9,21.6,00.0,31.8,24.8,08.5,0003.1,0049.76,0018.73,0014.86
2022-12-21 01:05:00,,0826.3,4.97,0.00,22.9,21.6,00.0,31.8,24.8,08.5,0002.9,0049.25,0018.82,0014.99
2022-12-21 01:06:00,,0826.3,5.03,0.00,22.9,21.6,00.0,31.8,24.8,08.5,0002.6,0048.32,0018.80,0015.07
2022-12-21 01:07:00,,0826.3,4.96,0.00,22.9,21.6,00.0,31.8,24.8,08.5,0002.6,0048.37,0018.76,0015.12
2022-12-21 01:08:00,,0826.1,5.01,0.00,22.9,21.6,00.0,31.8,24.8,08.4,0002.6,0050.51,0018.84,0015.15
2022-12-21 01:09:00,,0826.2,5.03,0.00,22.9,21.5,00.0,31.8,24.8,08.3,0002.9,0050.93,0018.73,0015.07
2022-12-21 01:10:00,,0826.2,4.96,0.00,22.9,21.5,00.0,31.8,24.8,08.2,0002.6,0050.26,0018.49,0014.88
2022-12-21 01:11:00,,0826.2,5.03,0.00,22.9,21.5,00.0,31.8,24.8,08.2,0002.0,0048.49,0018.27,0014.69
2022-12-21 01:12:00,,0826.2,4.97,0.00,22.9,21.5,00.0,31.8,24.8,08.2,0002.5,0046.23,0018.04,0014.51
2022-12-21 01:13:00,,0826.2,5.01,0.00,22.9,21.5,00.0,31.8,24.8,08.2,0002.5,0045.03,0017.72,0014.25
2022-12-21 01:14:00,,0826.1,5.03,0.00,22.9,21.5,00.0,31.8,24.8,08.2,0002.9,0044.00,0017.39,0013.92
2022-12-21 01:15:00,,0826.1,4.95,0.00,22.9,21.5,00.0,31.8,24.7,08.2,0003.4,0042.90,0016.99,0013.62
2022-12-21 01:16:00,,0826.2,5.05,0.00,22.9,21.5,00.0,31.8,24.7,08.2,0003.4,0042.09,0016.70,0013.31
2022-12-21 01:17:00,,0826.2,5.02,0.00,22.9,21.5,00.0,31.8,24.7,08.2,0003.7,0042.37,0016.51,0013.03
2022-12-21 01:18:00,,0826.2,4.96,0.00,22.9,21.5,00.0,31.8,24.7,08.2,0003.3,0041.07,0016.25,0012.80
2022-12-21 01:19:00,,0826.2,5.03,0.00,22.9,21.5,00.0,31.8,24.7,08.2,0002.7,0038.99,0015.98,0012.60
2022-12-21 01:20:00,,0826.1,4.95,0.00,22.9,21.5,00.0,31.8,24.7,08.3,0001.8,0039.71,0016.03,0012.59
2022-12-21 01:21:00,,0826.0,5.03,0.00,22.9,21.5,00.0,31.8,24.8,08.3,0002.2,0040.25,0016.23,0012.75
2022-12-21 01:22:00,,0826.1,5.02,0.00,22.9,21.5,00.0,31.8,24.8,08.3,0002.3,0041.12,0016.23,0012.83
2022-12-21 01:23:00,,0826.2,4.96,0.00,22.9,21.5,00.0,31.8,24.7,08.4,0001.9,0040.79,0016.29,0013.01
2022-12-21 01:24:00,,0826.2,5.02,0.00,22.9,21.5,00.0,31.8,24.6,08.4,0001.8,0040.45,0016.43,0013.21
2022-12-21 01:25:00,,0826.3,5.00,0.00,22.9,21.5,00.0,31.7,24.6,08.4,0001.7,0040.17,0016.58,0013.40
2022-12-21 01:26:00,,0826.3,4.97,0.00,22.8,21.4,00.0,31.7,24.6,08.4,0001.6,0041.03,0016.90,0013.61
2022-12-21 01:27:00,,0826.2,5.03,0.00,22.8,21.4,00.0,31.7,24.6,08.5,0001.7,0042.46,0017.08,0013.82
2022-12-21 01:28:00,,0826.1,4.96,0.00,22.8,21.3,00.0,31.7,24.4,08.4,0002.2,0043.17,0017.33,0014.06
2022-12-21 01:29:00,,0826.1,5.02,0.00,22.8,21.3,00.0,31.7,24.5,08.3,0002.6,0043.62,0017.57,0014.20
2022-12-21 01:30:00,,0826.0,5.02,0.00,22.8,21.3,00.0,31.7,24.5,08.2,0003.0,0042.76,0017.50,0014.12
2022-12-21 01:31:00,,0826.0,4.96,0.00,22.8,21.3,00.0,31.7,24.5,08.1,0003.5,0042.10,0017.24,0013.88
2022-12-21 01:32:00,,0826.0,5.03,0.00,22.8,21.3,00.0,31.7,24.6,08.1,0003.5,0042.70,0016.95,0013.64
2022-12-21 01:33:00,,0826.1,4.98,0.00,22.8,21.3,00.0,31.7,24.6,08.1,0003.7,0041.39,0016.63,0013.38
2022-12-21 01:34:00,,0826.2,4.99,0.00,22.8,21.3,00.0,31.7,24.6,08.0,0004.0,0041.01,0016.13,0012.88
2022-12-21 01:35:00,,0826.2,5.03,0.00,22.8,21.2,00.0,31.7,24.5,08.1,0004.2,0041.26,0015.63,0012.41
2022-12-21 01:36:00,,0826.2,4.94,0.00,22.7,21.0,00.0,31.7,24.4,08.2,0003.9,0042.76,0015.41,0012.10
2022-12-21 01:37:00,,0826.2,5.03,0.00,22.7,20.9,00.0,31.6,24.4,08.4,0004.1,0042.81,0015.19,0011.90
2022-12-21 01:38:00,,0826.2,5.02,0.00,22.6,20.9,00.0,31.6,24.4,08.5,0003.8,0042.51,0015.16,0011.75
2022-12-21 01:39:00,,0826.2,4.95,0.00,22.6,20.9,00.0,31.6,24.3,08.4,0003.4,0042.40,0014.97,0011.52
2022-12-21 01:40:00,,0826.0,5.02,0.00,22.6,21.0,00.0,31.6,24.3,08.4,0002.8,0042.83,0014.63,0011.25
2022-12-21 01:41:00,,0826.0,5.03,0.00,22.6,21.1,00.0,31.6,24.4,08.5,0003.6,0044.96,0014.72,0011.28
2022-12-21 01:42:00,,0825.9,4.96,0.00,22.6,21.1,00.0,31.6,24.4,08.4,0003.6,0045.29,0014.86,0011.37
2022-12-21 01:43:00,,0825.9,5.03,0.00,22.6,21.1,00.0,31.6,24.4,08.3,0003.8,0044.85,0014.93,0011.34
2022-12-21 01:44:00,,0826.0,4.98,0.00,22.6,21.1,00.0,31.5,24.4,08.4,0003.8,0045.71,0015.21,0011.45
2022-12-21 01:45:00,,0826.0,4.99,0.00,22.6,21.1,00.0,31.5,24.4,08.5,0003.9,0046.87,0015.81,0011.81
2022-12-21 01:46:00,,0826.1,5.03,0.00,22.6,21.0,00.0,31.5,24.3,08.5,0003.9,0048.89,0016.30,0012.12
2022-12-21 01:47:00,,0826.2,4.95,0.00,22.6,21.0,00.0,31.5,24.3,08.5,0004.1,0048.47,0016.44,0012.30
2022-12-21 01:48:00,,0826.5,5.03,0.00,22.5,21.1,00.0,31.5,24.2,08.5,0004.0,0048.56,0016.42,0012.36
2022-12-21 01:49:00,,0826.4,5.02,0.00,22.5,21.1,00.0,31.5,24.2,08.5,0004.1,0047.78,0016.30,0012.31
2022-12-21 01:50:00,,0826.3,4.96,0.00,22.5,21.1,00.0,31.5,24.3,08.5,0004.4,0045.93,0016.13,0012.29
2022-12-21 01:51:00,,0826.2,5.03,0.00,22.5,21.1,00.0,31.5,24.3,08.6,0004.7,0044.23,0016.13,0012.33
2022-12-21 01:52:00,,0826.0,4.98,0.00,22.5,21.1,00.0,31.5,24.3,08.6,0004.1,0044.08,0016.09,0012.32
2022-12-21 01:53:00,,0826.0,5.01,0.00,22.5,21.1,00.0,31.5,24.4,08.7,0003.8,0044.70,0016.15,0012.36
2022-12-21 01:54:00,,0826.0,5.02,0.00,22.5,21.0,00.0,31.4,24.3,08.9,0003.8,0044.72,0016.21,0012.43
2022-12-21 01:55:00,,0826.0,4.95,0.00,22.5,21.0,00.0,31.4,24.3,09.1,0003.8,0043.98,0016.06,0012.39
2022-12-21 01:56:00,,0826.0,5.02,0.00,22.5,21.0,00.0,31.4,24.3,09.2,0003.6,0042.79,0015.75,0012.24
2022-12-21 01:57:00,,0826.0,5.03,0.00,22.5,21.0,00.0,31.4,24.3,09.2,0003.9,0040.38,0015.45,0012.08
2022-12-21 01:58:00,,0826.0,4.95,0.00,22.5,21.0,00.0,31.4,24.3,09.2,0003.9,0039.08,0015.32,0011.92
2022-12-21 01:59:00,,0826.0,5.02,0.00,22.5,21.0,00.0,31.4,24.3,09.2,0003.6,0038.43,0015.15,0011.74
